Wind_Speed
41 40 39 38 38 37 36 35 35 34 34 34 34 35 36 35 35 34 33 32 31 30 29 27 27 27 26 26 25 26 26 25 23 23 23 23 22 22 21 19 18 18
42 40 39 37 37 37 36 37 37 36 36 36 36 35 35 34 34 34 34 33 32 31 30 28 27 27 27 27 27 27 27 26 25 24 24 24 23 23 23 20 19 18
42 41 40 38 38 38 38 38 37 38 37 36 36 35 35 34 34 34 34 33 33 33 32 30 29 28 28 29 28 28 28 28 26 25 25 25 24 24 24 21 20 19
42 42 41 40 40 40 38 37 36 37 37 36 36 36 35 34 34 34 34 33 33 33 33 31 30 29 30 30 29 29 29 29 28 27 26 26 25 24 24 22 21 20
44 43 43 41 40 39 38 37 37 37 38 37 37 36 35 35 34 34 34 34 34 34 33 32 31 31 30 30 31 31 31 31 30 29 28 27 26 25 24 23 22 21
42 43 42 41 40 39 38 38 38 38 38 38 37 36 36 36 36 35 35 35 34 34 34 34 33 32 31 31 31 32 32 33 32 31 30 29 28 26 25 23 23 22
41 41 41 40 39 39 39 39 39 39 39 38 37 37 37 36 36 37 36 36 35 35 35 35 35 34 32 32 33 34 34 33 33 32 32 31 29 27 26 25 24 23
40 40 40 40 39 39 39 39 39 39 39 38 37 37 37 38 38 38 37 36 36 36 36 36 36 36 34 34 34 35 35 34 33 33 33 32 30 29 28 26 25 24
40 40 40 40 40 40 40 39 39 38 38 38 37 37 38 38 39 38 38 37 37 37 37 37 37 37 36 36 36 36 36 36 34 33 34 33 32 31 29 27 26 26
39 39 39 40 41 41 40 40 39 38 38 38 38 37 37 38 39 39 38 38 37 37 38 38 38 38 38 38 38 38 38 37 35 35 34 34 33 32 31 29 29 28
40 39 40 41 41 40 40 40 39 39 38 38 38 37 37 37 38 39 39 39 39 39 39 39 39 39 38 39 40 39 39 38 37 35 35 35 34 33 32 31 31 30
40 41 41 42 41 40 40 40 40 39 38 38 38 38 38 38 39 40 40 41 41 40 40 40 39 39 40 40 40 40 39 38 37 36 36 35 34 34 33 32 32 32
42 43 43 42 41 41 41 41 40 40 39 39 39 39 39 40 40 40 41 42 42 41 41 41 40 40 40 41 41 40 40 39 37 37 36 36 35 34 33 33 33 33
44 44 42 42 42 41 42 41 41 40 39 39 38 39 40 42 42 41 41 42 41 41 41 41 40 40 41 41 41 41 40 39 38 37 37 36 35 34 33 33 33 33
43 41 41 41 41 41 42 41 41 40 39 39 39 40 41 42 42 41 41 41 41 40 40 40 41 41 42 42 42 42 41 39 38 38 37 36 34 33 33 32 32 32
40 40 40 40 41 42 42 41 41 40 40 40 41 42 42 41 41 41 41 41 40 39 40 40 41 43 44 44 44 43 42 40 38 38 36 35 33 32 31 31 31 29
39 39 39 40 41 42 42 41 41 40 41 42 42 42 42 41 40 41 41 41 40 40 40 41 43 44 44 45 45 44 43 40 39 38 36 34 32 30 30 29 25 19
39 39 39 40 42 42 42 42 41 41 42 42 42 43 42 41 41 42 41 40 40 40 42 43 44 44 45 46 46 45 44 41 39 37 35 33 31 30 25 18 13 13
39 39 40 41 42 42 41 40 40 41 42 42 43 43 41 41 42 42 41 40 40 42 43 43 44 44 45 46 46 45 45 42 40 37 34 31 29 24 19 15 18 25
39 40 41 41 41 40 39 39 40 41 42 42 41 40 40 41 42 42 41 41 42 43 43 42 43 45 45 46 46 45 44 43 41 36 32 29 24 21 22 27 33 34
39 40 41 40 40 39 38 39 40 41 42 41 39 38 40 40 40 41 42 42 43 43 41 41 43 45 45 45 45 44 43 42 40 35 30 26 24 26 31 36 36 34
40 40 39 38 38 37 38 39 40 41 41 39 37 37 38 38 39 40 41 42 42 41 40 41 42 43 43 44 44 43 42 41 39 34 29 27 27 31 35 37 34 32
39 37 36 36 36 37 38 39 40 40 40 38 37 36 36 37 38 39 39 39 39 39 40 41 41 40 41 42 42 42 41 40 37 33 30 30 31 33 35 35 33 32
38 38 37 36 37 39 41 41 41 40 39 39 38 37 37 37 37 37 37 37 38 39 41 41 39 38 39 40 41 41 40 39 36 32 31 32 33 34 34 33 31 30
38 38 38 37 38 40 41 41 40 40 39 39 39 39 39 38 38 37 37 37 38 39 40 40 38 36 37 40 40 40 40 38 35 32 31 33 35 34 31 28 29 29
37 38 38 39 41 43 42 41 40 38 38 39 40 40 39 38 38 39 38 38 37 37 38 38 38 36 37 39 39 39 39 38 35 34 33 34 37 35 30 26 25 27
Wind_Direction
213 213 214 214 214 216 216 217 219 220 223 225 226 229 231 233 237 238 239 239 239 238 239 239 240 241 242 241 241 240 240 242 243 245 244 244 244 242 242 245 243 241
212 213 214 214 215 216 217 218 220 221 224 226 228 231 232 234 236 238 238 238 237 237 238 239 240 241 241 241 241 240 239 240 242 243 243 243 244 242 242 244 243 241
212 212 213 214 215 216 217 218 219 222 225 227 229 231 233 234 235 236 237 237 237 237 238 239 240 241 241 241 241 239 238 239 239 242 244 244 245 243 242 243 242 241
211 212 213 214 216 217 217 217 218 221 223 225 228 230 231 232 233 234 235 236 236 237 238 239 240 240 240 241 241 239 238 238 239 242 245 245 245 243 243 242 241 239
211 212 213 215 216 216 217 216 218 220 222 224 226 228 228 229 231 232 233 234 234 236 237 238 239 240 240 240 240 239 238 238 239 241 243 244 244 243 242 242 240 237
212 213 213 214 215 215 215 216 218 220 222 224 224 224 225 226 228 230 232 233 233 235 235 236 238 239 239 239 239 239 239 239 240 241 242 243 243 242 242 241 239 237
212 213 213 214 215 215 216 217 218 219 221 223 223 223 223 223 226 229 231 232 232 233 234 235 236 236 237 237 238 239 240 241 241 240 240 241 241 240 240 239 238 237
212 212 212 213 214 215 216 216 218 219 220 221 221 222 222 223 225 227 229 230 230 231 233 234 234 234 235 235 237 238 240 240 240 238 238 238 238 239 239 237 236 237
211 211 212 212 213 215 216 216 218 218 219 219 220 222 222 223 224 226 228 229 229 230 231 231 232 232 233 234 236 237 239 240 239 237 237 237 237 238 238 236 234 236
210 210 211 211 212 214 215 216 217 218 218 219 220 221 221 222 224 225 226 227 227 228 229 230 230 230 231 233 235 237 239 240 239 238 238 237 237 238 238 236 234 234
209 209 210 211 212 213 214 215 216 217 218 218 219 220 221 222 223 224 225 225 226 227 228 229 229 229 230 232 235 237 238 239 239 239 239 238 238 238 238 237 235 235
208 209 210 211 211 212 213 215 216 217 217 218 218 219 220 222 223 223 224 225 227 228 228 229 228 228 230 232 234 236 237 238 237 238 240 239 238 238 238 238 237 237
208 210 210 210 211 212 213 215 216 216 217 217 218 219 220 222 223 224 224 226 227 227 228 229 228 228 230 231 233 235 235 235 235 236 238 238 239 239 239 239 238 237
210 210 210 210 211 212 213 214 215 215 216 216 218 218 220 222 223 224 225 226 226 226 227 228 227 227 228 229 231 232 233 233 234 235 236 236 238 239 239 240 239 238
210 209 209 210 210 211 212 213 214 215 215 215 217 218 220 222 223 224 225 225 225 226 226 226 226 226 227 228 229 230 230 231 232 234 235 235 236 238 239 240 241 239
208 208 208 209 209 211 212 212 213 213 213 215 217 218 220 221 222 224 224 224 224 224 224 225 225 226 228 229 230 230 229 229 231 233 234 233 234 235 237 240 242 241
207 207 207 208 209 211 211 212 212 212 213 214 216 218 219 219 220 222 223 224 224 223 223 224 225 227 228 230 231 231 230 229 230 231 232 232 232 233 236 240 240 238
206 206 207 208 209 210 211 211 211 211 213 214 215 216 217 217 219 221 222 223 223 224 225 225 226 228 228 229 230 231 231 230 229 230 230 229 230 232 234 233 233 240
204 204 206 208 209 210 210 210 210 212 213 214 215 215 215 216 218 220 221 221 222 223 225 226 227 229 229 229 230 230 231 230 228 228 228 227 228 226 219 218 232 239
203 204 207 208 209 209 209 209 210 212 214 215 215 215 214 216 217 219 220 221 222 223 225 226 228 229 229 229 230 230 231 230 228 227 226 225 222 214 214 227 235 234
203 205 207 208 208 207 208 209 211 213 215 216 215 215 216 216 217 219 220 221 222 223 224 226 228 229 229 229 229 230 230 229 226 224 221 220 216 214 225 235 236 231
204 205 206 207 206 206 208 210 212 214 215 215 215 217 218 219 219 221 221 221 222 222 223 226 229 229 229 229 229 229 229 226 223 219 216 216 217 221 230 235 234 231
205 205 206 206 205 205 209 211 212 214 215 214 215 217 218 219 221 223 223 223 223 222 223 226 229 229 229 229 230 228 226 222 217 214 213 215 220 226 230 232 231 231
205 205 205 205 204 207 210 211 212 214 214 213 214 216 217 219 221 223 225 226 225 224 225 226 228 229 229 230 229 227 224 219 213 210 210 215 222 227 229 228 228 230
205 206 206 205 207 210 212 212 213 213 214 213 214 216 217 218 219 221 224 225 226 227 227 227 228 229 229 230 228 227 223 216 209 206 207 213 221 226 225 223 222 227
205 206 207 207 209 212 212 213 213 213 213 213 214 216 216 216 216 217 220 223 224 226 228 229 228 228 229 230 228 226 222 214 207 205 205 210 219 224 221 216 216 222
Height
781 784 787 789 791 793 796 798 800 802 804 806 807 809 810 812 814 816 818 819 821 822 823 825 826 827 828 830 831 831 833 834 835 836 837 837 838 839 840 841 842 843
778 781 784 786 788 791 792 794 796 798 800 802 804 806 808 810 812 814 815 817 819 820 821 823 824 825 826 827 828 829 830 832 833 834 834 835 836 838 838 840 840 841
775 778 780 783 785 787 789 791 793 795 797 799 801 803 806 807 809 811 813 814 816 818 819 820 822 822 824 825 826 827 828 829 830 831 832 833 834 835 836 838 839 840
771 774 776 779 781 783 786 788 791 792 794 796 798 800 802 804 806 808 810 812 813 815 817 818 819 820 821 822 823 824 825 826 827 828 829 831 832 833 834 836 837 838
767 770 772 775 777 780 783 785 787 789 791 792 794 797 799 801 803 805 807 808 810 812 814 815 816 817 818 819 820 821 822 823 824 825 827 828 829 831 832 834 835 836
764 766 769 772 775 777 780 781 783 785 787 789 791 793 795 797 800 802 803 805 807 809 810 812 813 814 816 817 817 818 819 820 821 823 824 825 827 828 830 832 833 834
760 763 766 769 772 774 776 777 780 782 784 786 788 790 792 794 796 798 800 802 804 805 807 808 810 811 813 814 814 815 815 817 818 820 821 822 824 826 827 829 831 832
757 760 763 766 768 770 772 774 776 778 781 783 785 787 788 790 792 794 796 798 800 801 803 804 806 808 809 810 811 811 812 813 815 817 818 820 821 823 825 827 829 830
753 756 759 762 764 766 768 771 773 775 778 779 781 784 785 787 788 790 792 794 796 798 799 800 802 804 806 806 807 808 808 810 812 813 815 817 818 820 822 824 826 828
749 752 755 757 759 762 764 767 770 772 774 776 778 780 782 783 785 786 788 790 792 793 795 796 798 799 801 802 803 804 805 806 808 810 811 813 815 817 820 822 824 825
745 748 750 752 754 757 760 763 766 768 770 772 775 777 778 780 781 782 784 785 787 788 790 791 793 795 796 798 799 800 801 803 805 806 808 810 812 814 817 819 820 822
740 742 744 747 750 753 757 760 762 764 766 768 770 773 774 776 777 778 779 780 782 784 785 787 789 791 792 793 794 795 797 799 801 803 805 807 809 811 814 816 817 819
733 735 738 742 745 748 752 754 757 759 761 763 766 768 770 771 772 773 774 775 777 779 781 783 784 786 787 788 790 791 793 795 797 799 801 803 806 808 811 813 814 816
726 730 734 737 740 744 746 749 751 754 756 759 762 763 764 766 767 769 770 771 773 775 777 779 780 781 782 784 785 787 789 790 793 795 797 800 803 806 808 810 811 814
722 726 730 733 736 739 741 744 746 749 752 755 756 757 759 761 762 765 766 767 769 770 772 774 775 776 777 779 780 782 784 786 789 791 794 797 801 803 806 808 810 813
719 722 725 729 732 734 736 739 742 745 747 749 750 752 754 756 758 760 761 763 764 766 768 769 769 770 771 773 775 777 779 782 784 787 791 794 798 801 804 806 809 813
715 718 721 724 726 728 731 734 737 740 741 743 744 746 748 751 753 755 756 758 760 761 763 763 763 764 766 768 770 773 775 778 781 784 788 792 796 799 802 806 811 817
710 713 716 718 721 723 726 729 732 734 736 737 738 740 743 746 747 749 751 753 756 757 757 757 758 759 761 764 766 768 771 774 777 781 785 789 793 798 803 809 814 818
704 708 710 713 715 718 722 725 728 729 730 731 733 735 738 740 741 743 746 748 750 751 751 752 753 755 757 759 761 764 767 770 774 778 781 786 791 796 801 804 805 806
700 702 704 707 710 714 718 720 722 723 725 727 729 732 734 734 736 738 740 742 743 744 746 748 749 750 752 754 757 759 763 767 771 775 779 784 789 792 793 792 791 792
694 696 699 702 706 710 713 715 717 718 720 723 726 728 729 730 732 734 735 736 737 739 742 743 744 745 748 750 752 756 760 764 768 772 777 781 783 784 783 783 784 787
689 692 695 698 702 706 708 710 712 713 716 719 722 724 726 727 729 729 730 731 733 736 738 738 739 741 744 746 749 752 756 760 765 770 774 776 776 776 777 779 781 784
685 688 692 695 699 701 702 704 706 708 712 715 718 720 721 723 724 725 727 728 730 732 733 733 735 738 740 742 745 749 753 757 761 766 769 771 771 771 772 775 777 779
681 685 688 691 693 694 695 697 700 703 706 709 712 713 715 717 720 722 724 725 727 728 728 730 732 734 736 738 741 744 748 753 757 762 764 766 766 766 768 771 773 775
676 680 683 686 687 688 690 692 695 698 701 704 706 707 708 711 714 716 718 720 722 724 725 727 729 731 732 734 737 740 744 749 754 757 759 761 761 762 765 767 769 771
672 676 678 680 680 681 683 687 690 693 696 698 699 700 702 704 706 709 711 713 717 720 722 724 726 727 728 730 732 736 740 745 749 752 754 756 757 758 761 763 765 767